OCO14AC EBOS-EHAM

Flight info

Callsign OCO14AC
Flight time 0h 41m
Altitude 7000
Route COA8S COA DCT DENUT DENUT3A
Aircraft DA62/L-SDFGRY/C

Departure

Time 2026-05-07 19:56
Airport Ostend-Bruges International Airport (EBOS)

Arrival

Time 2026-05-07 20:37
Airport Amsterdam Airport Schiphol (EHAM)
Time Latitude Longitude Altitude Speed Heading
2026-05-07 19:12 51.19984 2.85641 18 ft 0 kts 60°
2026-05-07 19:46 51.19979 2.85666 18 ft 11 kts 143°
2026-05-07 19:46 51.19962 2.85669 18 ft 0 kts 221°
2026-05-07 19:46 51.19932 2.85676 18 ft 7 kts 172°
2026-05-07 19:46 51.19886 2.85601 18 ft 12 kts 225°
2026-05-07 19:47 51.19854 2.85488 18 ft 12 kts 262°
2026-05-07 19:47 51.19835 2.85353 18 ft 12 kts 248°
2026-05-07 19:47 51.19783 2.85280 18 ft 0 kts 209°
2026-05-07 19:50 51.19763 2.85261 17 ft 10 kts 208°
2026-05-07 19:50 51.19750 2.85255 17 ft 0 kts 173°
2026-05-07 19:54 51.19748 2.85255 17 ft 2 kts 173°
2026-05-07 19:54 51.19694 2.85275 17 ft 11 kts 162°
2026-05-07 19:55 51.19669 2.85362 16 ft 12 kts 77°
2026-05-07 19:55 51.19741 2.85829 17 ft 74 kts 77°
2026-05-07 19:55 51.19898 2.86773 188 ft 91 kts 71°
2026-05-07 19:55 51.20072 2.87913 292 ft 116 kts 81°
2026-05-07 19:56 51.20250 2.89222 472 ft 127 kts 77°
2026-05-07 19:56 51.20462 2.90661 654 ft 139 kts 77°
2026-05-07 19:56 51.20692 2.92203 833 ft 147 kts 76°
2026-05-07 19:56 51.20930 2.93801 1056 ft 148 kts 76°
2026-05-07 19:57 51.21142 2.95412 1301 ft 149 kts 84°
2026-05-07 19:57 51.21197 2.97040 1523 ft 151 kts 70°
2026-05-07 19:57 51.21905 2.98333 1574 ft 160 kts 37°
2026-05-07 19:57 51.22630 2.99631 1817 ft 158 kts 67°
2026-05-07 19:58 51.23182 3.01087 2056 ft 155 kts 37°
2026-05-07 19:58 51.24063 3.02060 2307 ft 154 kts 40°
2026-05-07 19:58 51.24842 3.03221 2557 ft 153 kts 44°
2026-05-07 19:58 51.25593 3.04422 2807 ft 153 kts 45°
2026-05-07 19:59 51.26339 3.05631 3056 ft 153 kts 45°
2026-05-07 19:59 51.27075 3.06825 3303 ft 153 kts 45°
2026-05-07 19:59 51.27823 3.08040 3553 ft 153 kts 45°
2026-05-07 19:59 51.28572 3.09256 3803 ft 154 kts 45°
2026-05-07 20:00 51.29323 3.10475 4054 ft 154 kts 45°
2026-05-07 20:00 51.30076 3.11699 4303 ft 155 kts 45°
2026-05-07 20:00 51.30833 3.12930 4553 ft 155 kts 45°
2026-05-07 20:00 51.31591 3.14164 4803 ft 156 kts 45°
2026-05-07 20:01 51.32352 3.15403 5047 ft 157 kts 45°
2026-05-07 20:01 51.33117 3.16649 5304 ft 157 kts 45°
2026-05-07 20:01 51.33884 3.17899 5554 ft 158 kts 45°
2026-05-07 20:01 51.34655 3.19156 5812 ft 158 kts 45°
2026-05-07 20:02 51.35428 3.20417 6054 ft 159 kts 45°
2026-05-07 20:02 51.36205 3.21684 6304 ft 160 kts 45°
2026-05-07 20:02 51.36983 3.22956 6554 ft 160 kts 45°
2026-05-07 20:02 51.37766 3.24234 6805 ft 161 kts 45°
2026-05-07 20:03 51.38555 3.25524 6990 ft 166 kts 45°
2026-05-07 20:03 51.39394 3.26898 6995 ft 178 kts 45°
2026-05-07 20:03 51.40281 3.28348 7001 ft 186 kts 45°
2026-05-07 20:03 51.41196 3.29848 7003 ft 190 kts 45°
2026-05-07 20:04 51.42128 3.31375 7003 ft 193 kts 45°
2026-05-07 20:04 51.43069 3.32917 7004 ft 194 kts 45°
2026-05-07 20:04 51.44017 3.34473 7004 ft 195 kts 45°
2026-05-07 20:04 51.44966 3.36031 7004 ft 196 kts 45°
2026-05-07 20:05 51.45918 3.37595 7004 ft 196 kts 45°
2026-05-07 20:05 51.46870 3.39159 7004 ft 196 kts 45°
2026-05-07 20:05 51.47823 3.40727 7004 ft 196 kts 45°
2026-05-07 20:05 51.48777 3.42295 7000 ft 196 kts 45°
2026-05-07 20:06 51.49718 3.43846 7001 ft 196 kts 45°
2026-05-07 20:06 51.50673 3.45419 7004 ft 196 kts 45°
2026-05-07 20:06 51.51626 3.46991 7004 ft 196 kts 45°
2026-05-07 20:06 51.52578 3.48561 7000 ft 196 kts 45°
2026-05-07 20:07 51.53531 3.50134 7001 ft 196 kts 45°
2026-05-07 20:07 51.54445 3.51644 7004 ft 196 kts 45°
2026-05-07 20:07 51.55421 3.53258 7091 ft 201 kts 46°
2026-05-07 20:07 51.56399 3.54876 7074 ft 202 kts 46°
2026-05-07 20:08 51.57377 3.56494 7075 ft 202 kts 46°
2026-05-07 20:08 51.58353 3.58111 7075 ft 201 kts 46°
2026-05-07 20:08 51.59329 3.59727 7074 ft 202 kts 46°
2026-05-07 20:08 51.60306 3.61348 7075 ft 202 kts 46°
2026-05-07 20:09 51.61281 3.62966 7075 ft 201 kts 46°
2026-05-07 20:09 51.62256 3.64585 7081 ft 201 kts 46°
2026-05-07 20:09 51.63231 3.66204 7074 ft 202 kts 46°
2026-05-07 20:10 51.65193 3.69469 7073 ft 201 kts 46°
2026-05-07 20:10 51.66155 3.71070 7081 ft 202 kts 46°
2026-05-07 20:10 51.67134 3.72702 7081 ft 202 kts 46°
2026-05-07 20:10 51.68112 3.74332 7072 ft 202 kts 46°
2026-05-07 20:11 51.69086 3.75957 7074 ft 202 kts 46°
2026-05-07 20:11 51.70060 3.77583 7081 ft 202 kts 46°
2026-05-07 20:11 51.71035 3.79211 7073 ft 202 kts 46°
2026-05-07 20:11 51.72009 3.80839 7074 ft 201 kts 46°
2026-05-07 20:12 51.72981 3.82466 7081 ft 202 kts 46°
2026-05-07 20:12 51.73957 3.84098 7074 ft 202 kts 46°
2026-05-07 20:12 51.74931 3.85729 7080 ft 201 kts 46°
2026-05-07 20:12 51.75899 3.87351 7074 ft 201 kts 47°
2026-05-07 20:13 51.76867 3.88975 7076 ft 201 kts 47°
2026-05-07 20:13 51.77836 3.90602 7077 ft 201 kts 47°
2026-05-07 20:13 51.78806 3.92231 7077 ft 201 kts 47°
2026-05-07 20:13 51.79774 3.93858 7076 ft 201 kts 47°
2026-05-07 20:14 51.80746 3.95493 7082 ft 201 kts 47°
2026-05-07 20:14 51.81717 3.97126 7076 ft 201 kts 47°
2026-05-07 20:14 51.82685 3.98756 7084 ft 201 kts 47°
2026-05-07 20:14 51.83654 4.00388 7078 ft 201 kts 47°
2026-05-07 20:15 51.84624 4.02025 7083 ft 201 kts 47°
2026-05-07 20:15 51.85580 4.03637 7075 ft 201 kts 47°
2026-05-07 20:15 51.86549 4.05273 7075 ft 201 kts 47°
2026-05-07 20:15 51.87519 4.06911 7074 ft 202 kts 47°
2026-05-07 20:16 51.88491 4.08555 7075 ft 202 kts 47°
2026-05-07 20:16 51.89459 4.10191 7072 ft 201 kts 47°
2026-05-07 20:16 51.90446 4.11800 7068 ft 202 kts 41°
2026-05-07 20:16 51.91685 4.12854 7065 ft 203 kts 17°
2026-05-07 20:17 51.93076 4.13086 7067 ft 202 kts 354°
2026-05-07 20:17 51.93996 4.12751 7065 ft 201 kts 339°
2026-05-07 20:17 51.95174 4.11590 7067 ft 198 kts 315°
2026-05-07 20:17 51.95976 4.09807 7075 ft 195 kts 292°
2026-05-07 20:18 51.96282 4.07689 7069 ft 193 kts 271°
2026-05-07 20:18 51.96585 4.05659 7363 ft 182 kts 297°
2026-05-07 20:18 51.97404 4.04300 7875 ft 166 kts 323°
2026-05-07 20:18 51.98575 4.03806 7875 ft 182 kts
2026-05-07 20:19 51.99713 4.04561 8139 ft 177 kts 35°
2026-05-07 20:19 52.00489 4.06056 7862 ft 162 kts 62°
2026-05-07 20:19 52.00916 4.07636 7440 ft 147 kts 71°
2026-05-07 20:19 52.01269 4.09149 7079 ft 138 kts 57°
2026-05-07 20:20 52.01937 4.10049 6837 ft 125 kts 33°
2026-05-07 20:20 52.02423 4.11102 6495 ft 119 kts 60°
2026-05-07 20:20 52.02822 4.12314 6045 ft 122 kts 64°
2026-05-07 20:20 52.03189 4.13502 5724 ft 116 kts 66°
2026-05-07 20:21 52.03589 4.14791 5291 ft 155 kts 62°
2026-05-07 20:21 52.04163 4.16470 5047 ft 177 kts 64°
2026-05-07 20:21 52.04722 4.18239 4753 ft 171 kts 67°
2026-05-07 20:21 52.05126 4.19747 4415 ft 127 kts 70°
2026-05-07 20:22 52.05427 4.21008 3996 ft 115 kts 71°
2026-05-07 20:22 52.05735 4.22190 3626 ft 112 kts 69°
2026-05-07 20:22 52.06073 4.23315 3283 ft 111 kts 66°
2026-05-07 20:22 52.06414 4.24481 2906 ft 121 kts 68°
2026-05-07 20:23 52.06754 4.25785 2549 ft 128 kts 68°
2026-05-07 20:23 52.07133 4.27068 2304 ft 125 kts 65°
2026-05-07 20:23 52.07579 4.28420 2292 ft 148 kts 62°
2026-05-07 20:23 52.08122 4.29936 2327 ft 159 kts 60°
2026-05-07 20:24 52.08662 4.31522 2453 ft 158 kts 76°
2026-05-07 20:24 52.08758 4.33291 2615 ft 158 kts 89°
2026-05-07 20:24 52.08869 4.35118 2565 ft 169 kts 84°
2026-05-07 20:24 52.09016 4.37038 2554 ft 172 kts 83°
2026-05-07 20:25 52.09170 4.38990 2544 ft 175 kts 83°
2026-05-07 20:25 52.09377 4.40945 2510 ft 178 kts 78°
2026-05-07 20:25 52.09673 4.42847 2707 ft 169 kts 74°
2026-05-07 20:25 52.10081 4.44672 2667 ft 176 kts 65°
2026-05-07 20:26 52.10720 4.46383 2731 ft 175 kts 56°
2026-05-07 20:26 52.11498 4.47912 2786 ft 176 kts 47°
2026-05-07 20:26 52.12351 4.49342 2827 ft 177 kts 48°
2026-05-07 20:26 52.13202 4.50702 2801 ft 161 kts 46°
2026-05-07 20:27 52.13948 4.51895 2550 ft 143 kts 48°
2026-05-07 20:27 52.14576 4.52993 2393 ft 122 kts 51°
2026-05-07 20:27 52.15084 4.54017 2175 ft 111 kts 59°
2026-05-07 20:27 52.15425 4.55068 1973 ft 99 kts 66°
2026-05-07 20:28 52.15707 4.56055 1775 ft 92 kts 68°
2026-05-07 20:28 52.15949 4.57020 1556 ft 92 kts 70°
2026-05-07 20:28 52.16193 4.57974 1398 ft 96 kts 64°
2026-05-07 20:28 52.16529 4.58896 1320 ft 91 kts 60°
2026-05-07 20:29 52.16865 4.59767 1092 ft 92 kts 58°
2026-05-07 20:29 52.17206 4.60640 894 ft 89 kts 62°
2026-05-07 20:29 52.17525 4.61481 794 ft 87 kts 57°
2026-05-07 20:29 52.17870 4.62211 721 ft 78 kts 50°
2026-05-07 20:30 52.18262 4.62888 663 ft 84 kts 50°
2026-05-07 20:30 52.18653 4.63605 624 ft 86 kts 53°
2026-05-07 20:30 52.18978 4.64433 545 ft 90 kts 58°
2026-05-07 20:30 52.19367 4.65271 496 ft 92 kts 50°
2026-05-07 20:31 52.19866 4.65976 506 ft 98 kts 36°
2026-05-07 20:31 52.20512 4.66325 590 ft 96 kts 14°
2026-05-07 20:31 52.21171 4.66401 681 ft 101 kts
2026-05-07 20:31 52.21855 4.66424 793 ft 96 kts 13°
2026-05-07 20:32 52.22510 4.66546 914 ft 95 kts 18°
2026-05-07 20:32 52.23117 4.66970 963 ft 98 kts 40°
2026-05-07 20:32 52.23604 4.67697 1095 ft 93 kts 52°
2026-05-07 20:32 52.24022 4.68510 1167 ft 93 kts 52°
2026-05-07 20:33 52.24441 4.69338 1248 ft 98 kts 56°
2026-05-07 20:33 52.24837 4.70137 1211 ft 85 kts 55°
2026-05-07 20:33 52.25198 4.70861 1135 ft 81 kts 54°
2026-05-07 20:33 52.25557 4.71581 1063 ft 83 kts 53°
2026-05-07 20:34 52.25950 4.72263 785 ft 87 kts 47°
2026-05-07 20:34 52.26352 4.72903 684 ft 76 kts 44°
2026-05-07 20:34 52.26743 4.73461 571 ft 76 kts 42°
2026-05-07 20:34 52.27131 4.74051 495 ft 75 kts 45°
2026-05-07 20:35 52.27517 4.74636 414 ft 76 kts 44°
2026-05-07 20:35 52.27905 4.75217 338 ft 75 kts 44°
2026-05-07 20:35 52.28294 4.75797 265 ft 79 kts 45°
2026-05-07 20:35 52.28703 4.76397 226 ft 79 kts 44°
2026-05-07 20:36 52.29098 4.76982 219 ft 76 kts 44°
2026-05-07 20:36 52.29496 4.77547 133 ft 76 kts 42°
2026-05-07 20:36 52.29897 4.78135 58 ft 78 kts 41°
2026-05-07 20:36 52.30297 4.78707 -2 ft 73 kts 46°
2026-05-07 20:37 52.30648 4.79223 -11 ft 58 kts 40°
2026-05-07 20:37 52.30892 4.79571 -13 ft 26 kts 48°
2026-05-07 20:37 52.30995 4.79734 -15 ft 26 kts 35°
2026-05-07 20:37 52.31144 4.79935 -13 ft 23 kts 41°
2026-05-07 20:38 52.31156 4.80061 -12 ft 17 kts 133°
2026-05-07 20:38 52.31066 4.80226 -10 ft 21 kts 130°
2026-05-07 20:38 52.30974 4.80399 -9 ft 21 kts 126°
2026-05-07 20:38 52.31002 4.80530 -9 ft 11 kts 42°
2026-05-07 20:39 52.31044 4.80608 -10 ft 8 kts 84°
2026-05-07 20:39 52.31018 4.80699 -10 ft 10 kts 123°
2026-05-07 20:39 52.30955 4.80740 -10 ft 8 kts 208°
2026-05-07 20:39 52.30954 4.80669 -10 ft 3 kts
2026-05-07 20:40 52.30958 4.80670 -10 ft 0 kts 16°